This is the latest recevied weather packets stored in our database for station/object KD0RII. If no packets are shown the sender has not sent any weather packets the latest 10 day(s).
| Time | Temp. | Humidity | Pressure | Rain* | Wind** | Luminosity | Snow |
|---|---|---|---|---|---|---|---|
| 1777318783 | 23.89° C | 65% | 1006.1 hPa | 0 mm | - | 1022 W/m² | - |
| 1777318479 | 23.89° C | 67% | 1006.1 hPa | 0 mm | - | 901 W/m² | - |
| 1777318176 | 23.33° C | 67% | 1005.9 hPa | 0 mm | - | 462 W/m² | - |
| 1777317873 | 24.44° C | 64% | 1005.9 hPa | 0 mm | - | 384 W/m² | - |
| 1777317570 | 24.44° C | 64% | 1005.8 hPa | 0 mm | - | 849 W/m² | - |
| 1777317268 | 24.44° C | 66% | 1005.6 hPa | 0 mm | - | 993 W/m² | - |
| 1777316962 | 23.33° C | 68% | 1005.6 hPa | 0 mm | - | 587 W/m² | - |
| 1777316660 | 23.33° C | 68% | 1005.6 hPa | 0 mm | - | 861 W/m² | - |
| 1777316355 | 23.89° C | 67% | 1005.3 hPa | 0 mm | - | 328 W/m² | - |
| 1777316048 | 23.89° C | 66% | 1005.3 hPa | 0 mm | - | 231 W/m² | - |
| 1777315747 | 23.89° C | 66% | 1005.1 hPa | 0 mm | - | 236 W/m² | - |
| 1777315444 | 25.56° C | 64% | 1005.2 hPa | 0 mm | - | 345 W/m² | - |
| 1777315142 | 25.56° C | 63% | 1005.3 hPa | 0 mm | - | 898 W/m² | - |
| 1777314837 | 26.11° C | 61% | 1005.1 hPa | 0 mm | - | 970 W/m² | - |
| 1777314533 | 25.56° C | 64% | 1004.8 hPa | 0 mm | - | 885 W/m² | - |
| 1777314229 | 25° C | 64% | 1004.9 hPa | 0 mm | - | 370 W/m² | - |
| 1777313928 | 26.11° C | 63% | 1004.9 hPa | 0 mm | - | 530 W/m² | - |
| 1777313625 | 26.11° C | 63% | 1004.8 hPa | 0 mm | - | 1048 W/m² | - |
| 1777313323 | 26.11° C | 64% | 1004.7 hPa | 0 mm | - | 950 W/m² | - |
| 1777313019 | 26.11° C | 61% | 1004.7 hPa | 0 mm | - | 674 W/m² | - |
| 1777312716 | 26.67° C | 62% | 1004.4 hPa | 0 mm | - | 572 W/m² | - |
| 1777312412 | 27.22° C | 62% | 1004.3 hPa | 0 mm | - | 375 W/m² | - |
| 1777312109 | 26.67° C | 59% | 1004.4 hPa | 0 mm | - | 696 W/m² | - |
| 1777311806 | 26.67° C | 61% | 1004 hPa | 0 mm | - | 941 W/m² | - |
| 1777311504 | 26.67° C | 62% | 1004 hPa | 0 mm | - | 759 W/m² | - |
* Rain latest hour (hover to see other rain measurements)
** Current wind speed in m/s (hover to see current wind gust speed)